Location: Chandler Mountain
(33.9167°N, 86.2833°W)
Time: 02:34:47
(UTC-06:00)

ISS - Visible Passes

Search period start: 11 December 2018 00:00
Search period end: 21 December 2018 00:00
Orbit: 401 x 408 km, 51.6° (Epoch: 12 December)

Date Brightness Start Highest point End Pass type
(mag) Time Alt. Az. Time Alt. Az. Time Alt. Az.
11 Dec -2.5 17:26:38 10° NNW 17:29:18 23° NE 17:30:38 18° ENE visible
11 Dec -0.6 19:02:56 10° WNW 19:03:22 13° WNW 19:03:22 13° WNW visible
12 Dec -3.5 18:10:26 10° NW 18:13:40 62° SW 18:14:35 40° SSE visible
13 Dec -3.8 17:18:14 10° NW 17:21:28 56° NE 17:24:39 10° ESE visible
14 Dec -1.1 18:03:00 10° WNW 18:05:30 21° SW 18:08:00 10° S visible
15 Dec -2.6 17:10:16 10° WNW 17:13:24 45° SW 17:16:31 10° SSE visible
